User: anonymous   Login
Location: Franzen
(48.6167°N, 15.3833°E)
Time: 01:10:08
(UTC+00:00)
Language:

Cosmos 1603 - Orbit

View from above orbital plane
View from above orbital plane
View from above satellite
View from above satellite

Ground track
Ground track

The orbit data is extracted from the following two-line orbital elements,

1 15333U 84106A   21174.52899336 -.00000219  00000-0 -90245-4 0  9992
2 15333  71.0274 259.6257 0017759 138.2034 222.0449 14.14120886895453
Epoch (UTC): 23 June 2021 12:41:45
Eccentricity: 0.0017759
inclination: 71.0274°
perigee height: 832 km
apogee height: 858 km
right ascension of ascending node: 259.6257°
argument of perigee: 138.2034°
revolutions per day: 14.14120886
mean anomaly at epoch: 222.0449°
orbit number at epoch: 89545

The dashed part of the orbit path shows where the satellite is in the earth's shadow,  

DLR